Regional Weather Roundup
Issued by NWS

Home | Current Version | Previous Version | Graphics & Text | Print | Product List | Glossary On
Versions: 1 2 3 4 5 6 7 8 9 10 11 12 13 14 15 16 17 18 19 20 21 22 23 24 25 26 27 28 29 30 31 32 33 34 35 36 37 38 39 40 41 42 43 44 45 46 47 48 49 50
000
ASUS43 KFSD 221502
RWRSD

WEATHER ROUNDUP FOR SOUTH DAKOTA
NATIONAL WEATHER SERVICE SIOUX FALLS SD
900 AM CST SAT NOV 22 2014

NOTE: "FAIR" INDICATES FEW OR NO CLOUDS BELOW 12,000 FEET WITH NO
SIGNIFICANT WEATHER AND/OR OBSTRUCTIONS TO VISIBILITY.


SDZ001>005-009-010-012>017-221600-
NORTHWEST AND NORTH CENTRAL SOUTH DAKOTA

CITY           SKY/WX    TMP DP  RH WIND       PRES   REMARKS
BUFFALO          N/A     32  24  72 S5        29.39F WCI  27
FAITH            N/A     28  23  81 S14       29.48S WCI  17
MOBRIDGE       PTCLDY    32  28  85 SE12      29.51F WCI  23
$$

SDZ012>016-024>037-041>051-057-063-072>074-221600-
SOUTHWEST AND SOUTH CENTRAL SOUTH DAKOTA

CITY           SKY/WX    TMP DP  RH WIND       PRES   REMARKS
RAPID CTY ARPT CLOUDY    41  27  57 S9        29.50F
PIERRE         PTCLDY    27  24  89 SE10      29.56F WCI  17
CUSTER         MOCLDY    37  21  52 W14G23    29.54F
ELLSWORTH AFB  CLOUDY    43  26  50 W9        29.49F
PHILIP         MOCLDY    34  20  56 NW3       29.54F
PINE RIDGE     CLOUDY    44  23  43 SW13      29.59F
WINNER         FAIR      39  25  57 SW16      29.60F
$$

SDZ004>011-016>023-039-040-221600-
NORTHEAST SOUTH DAKOTA

CITY           SKY/WX    TMP DP  RH WIND       PRES   REMARKS
ABERDEEN       MOSUNNY   23  19  85 S9        29.63F WCI  13
WATERTOWN      SUNNY     24  21  88 S13       29.66F FOG     WCI  12
SISSETON         N/A     38  28  67 S7        29.62F
$$

SDZ017-020-022-023-036>040-048>070-221600-
SOUTHEAST SOUTH DAKOTA

CITY           SKY/WX    TMP DP  RH WIND       PRES   REMARKS
SIOUX FALLS    FOG       31  31 100 S9        29.73F VSB 1   WCI  23
HURON          SUNNY     26  24  92 SE8       29.65F WCI  18
CHAMBERLAIN    MOSUNNY   27  24  91 SE3       29.63F
MITCHELL       SUNNY     29  27  92 S7        29.69F FOG     WCI  22
YANKTON        SUNNY     32  28  86 S6        29.74F WCI  26
$$

ABBREVIATIONS USED IN REMARKS
   TC - TEMPERATURE IN CELSIUS
  WCI - WIND CHILL INDEX
   HX - HEAT INDEX
  VSB - VISIBILITY



USA.gov is the U.S. government's official web portal to all federal, state and local government web resources and services.